This demonstration page uses our WeatherBlox Daily Observations layout. Learn more.

Left ArrowRight Arrow

Hourly Observations for October 7, 2022

Temp ( °F °C ) Dew Point ( °F °C ) Humidity (%) Winds ( mph kmh ) Pressure ( in mb ) Visibility ( mi km ) Precip ( " mm )
12:15 am 00:15 Clear 44 6.6 31 -0.8 59 59 NE 9 15 30.45 1031 10 16 0.00 0.00
12:35 am 00:35 Clear 44 6.4 30 -0.9 59 59 NE 8 13 30.47 1032 10 16 0.00 0.00
12:55 am 00:55 Clear 42 5.5 31 -0.5 65 65 NNE 8 13 30.48 1032 10 16 0.00 0.00
1:15 am 01:15 Clear 41 5 31 -0.3 69 69 NNE 7 11 30.49 1032 10 16 0.00 0.00
1:35 am 01:35 Clear 40 4.7 31 -0.5 69 69 NNE 7 11 30.49 1033 10 16 0.00 0.00
1:55 am 01:55 Clear 40 4.6 31 -0.6 69 69 N 9 15 30.50 1033 10 16 0.00 0.00
2:15 am 02:15 Clear 40 4.5 31 -0.8 68 68 NNE 9 15 30.51 1033 10 16 0.00 0.00
2:35 am 02:35 Partly Cloudy 40 4.2 31 -0.5 71 71 NNE 8 13 30.53 1034 10 16 0.00 0.00
2:55 am 02:55 Mostly Cloudy 41 5.1 32 -0.2 69 69 NNE 9 15 30.51 1033 10 16 0.00 0.00
3:15 am 03:15 Cloudy 42 5.8 31 -0.5 64 64 NNE 9 15 30.50 1033 10 16 0.00 0.00
3:35 am 03:35 Cloudy 42 5.7 32 0.1 67 67 NNE 15 24 30.53 1034 10 16 0.00 0.00
3:55 am 03:55 Cloudy 41 5.1 33 0.7 73 73 N 14 22 30.54 1034 10 16 0.00 0.00
4:15 am 04:15 Cloudy 40 4.6 34 1.1 78 78 N 15 24 30.55 1035 10 16 0.00 0.00
4:35 am 04:35 Cloudy 40 4.5 34 1.1 79 79 N 14 22 30.56 1035 10 16 0.00 0.00
4:55 am 04:55 Cloudy 40 4.5 34 0.9 77 77 N 12 19 30.56 1035 10 16 0.00 0.00
5:15 am 05:15 Cloudy with Heavy Rain 39 4 36 2.1 87 87 N 12 19 30.57 1035 7 11 0.02 0.51
5:35 am 05:35 Cloudy with Light Rain 38 3.5 36 2.4 92 92 NNE 13 20 30.57 1035 10 16 0.06 1.52
5:55 am 05:55 Cloudy with Light Rain 38 3.5 36 2.1 91 91 NNE 7 11 30.57 1035 10 16 0.07 1.78
6:15 am 06:15 Cloudy with Light Rain 38 3.6 36 2.3 91 91 N 7 11 30.58 1036 10 16 0.01 0.25
6:35 am 06:35 Cloudy with Rain 38 3.6 37 2.5 92 92 NNE 8 13 30.58 1036 10 16 0.04 1.02
6:55 am 06:55 Cloudy with Light Rain 39 3.7 37 2.6 92 92 NNE 9 15 30.57 1035 10 16 0.06 1.52
7:15 am 07:15 Cloudy with Rain 39 4 37 2.5 90 90 N 8 13 30.58 1035 10 16 0.00 0.00
7:35 am 07:35 Cloudy with Drizzle 39 4 37 2.5 90 90 N 8 13 30.60 1036 10 16 0.00 0.00
7:55 am 07:55 Cloudy with Light Rain 39 3.8 36 2.3 90 90 NNE 9 15 30.58 1036 10 16 0.00 0.00
8:15 am 08:15 Cloudy with Rain 38 3.6 36 2.3 91 91 N 7 11 30.60 1036 7 11 0.03 0.76
8:35 am 08:35 Cloudy with Light Rain 38 3.6 36 2.4 92 92 N 8 13 30.61 1037 10 16 0.03 0.76
8:55 am 08:55 Cloudy with Light Rain 38 3.6 37 2.5 92 92 N 6 9 30.61 1037 10 16 0.03 0.76
9:15 am 09:15 Cloudy with Rain 38 3.5 36 2.4 92 92 N 6 9 30.62 1037 4 6 0.05 1.27
9:35 am 09:35 Cloudy with Light Rain 39 4 37 2.7 91 91 NW 7 11 30.63 1037 10 16 0.07 1.78
9:55 am 09:55 Cloudy 39 4 37 2.7 91 91 NW 6 9 30.63 1037 10 16 0.07 1.78
10:15 am 10:15 Cloudy 39 4.1 37 2.6 90 90 NNW 6 9 30.63 1037 10 16 0.00 0.00
10:35 am 10:35 Cloudy with Light Rain 40 4.2 35 1.9 85 85 NNW 7 11 30.63 1037 10 16 0.00 0.00
10:55 am 10:55 Cloudy with Light Rain 39 4.1 36 2 86 86 NNW 6 9 30.64 1037 10 16 0.01 0.25
11:15 am 11:15 Cloudy 40 4.2 35 1.9 85 85 NNW 6 9 30.63 1037 10 16 0.00 0.00
11:35 am 11:35 Cloudy 40 4.5 35 1.9 83 83 N 7 11 30.62 1037 10 16 0.00 0.00
11:55 am 11:55 Cloudy 41 4.9 36 2.2 83 83 N 8 13 30.62 1037 10 16 0.00 0.00
12:15 pm 12:15 Cloudy 42 5.3 37 2.6 83 83 N 6 9 30.62 1037 10 16 0.00 0.00
12:35 pm 12:35 Cloudy 42 5.4 36 2.3 80 80 N 7 11 30.61 1036 10 16 0.00 0.00
12:55 pm 12:55 Cloudy 42 5.6 35 1.8 76 76 N 6 9 30.60 1036 10 16 0.00 0.00
1:15 pm 13:15 Cloudy 42 5.8 34 1.1 72 72 Calm 30.59 1036 10 16 0.00 0.00
1:35 pm 13:35 Cloudy 43 6.1 34 0.9 69 69 N 7 11 30.59 1036 10 16 0.00 0.00
1:55 pm 13:55 Cloudy 44 6.5 34 1.3 69 69 N 8 13 30.58 1035 10 16 0.00 0.00
2:15 pm 14:15 Cloudy 44 6.6 34 0.9 67 67 N 3 6 30.57 1035 10 16 0.00 0.00
2:35 pm 14:35 Cloudy 45 7.1 34 1.1 66 66 N 7 11 30.56 1035 10 16 0.00 0.00
2:55 pm 14:55 Cloudy 45 7.2 34 1 65 65 N 7 11 30.55 1034 10 16 0.00 0.00
3:15 pm 15:15 Cloudy 45 7.4 32 -0.1 59 59 Calm 30.54 1034 10 16 0.00 0.00
3:35 pm 15:35 Cloudy 45 7.2 34 1 65 65 NNW 5 7 30.54 1034 10 16 0.00 0.00
3:55 pm 15:55 Cloudy 46 7.6 34 1 63 63 N 7 11 30.54 1034 10 16 0.00 0.00
4:15 pm 16:15 Cloudy 46 7.6 33 0.3 60 60 N 6 9 30.52 1034 10 16 0.00 0.00
4:35 pm 16:35 Cloudy 46 7.6 33 0.8 62 62 N 6 9 30.52 1034 10 16 0.00 0.00
4:55 pm 16:55 Cloudy 46 7.5 32 0.2 60 60 N 3 6 30.52 1034 10 16 0.00 0.00
5:15 pm 17:15 Cloudy 45 7.3 32 0.1 60 60 N 7 11 30.52 1033 10 16 0.00 0.00
5:35 pm 17:35 Cloudy 45 7.3 32 0.2 61 61 N 7 11 30.51 1033 10 16 0.00 0.00
5:55 pm 17:55 Cloudy 45 7.2 32 0.1 61 61 NNW 5 7 30.51 1033 10 16 0.00 0.00
6:15 pm 18:15 Cloudy 45 7.1 32 0 61 61 NNW 3 6 30.51 1033 10 16 0.00 0.00
6:35 pm 18:35 Cloudy 45 7 33 0.6 64 64 Calm 30.50 1033 10 16 0.00 0.00
6:55 pm 18:55 Cloudy 45 7 33 0.7 64 64 WNW 3 6 30.50 1033 10 16 0.00 0.00
7:15 pm 19:15 Cloudy 44 6.8 34 0.9 66 66 WNW 3 6 30.50 1033 10 16 0.00 0.00
7:35 pm 19:35 Cloudy 44 6.8 35 1.4 68 68 W 3 6 30.50 1033 10 16 0.00 0.00
7:55 pm 19:55 Cloudy 44 6.7 35 1.5 69 69 W 3 6 30.50 1033 10 16 0.00 0.00
8:15 pm 20:15 Cloudy 44 6.8 34 1.3 68 68 W 3 6 30.50 1033 10 16 0.00 0.00
8:35 pm 20:35 Cloudy 44 6.7 35 1.5 69 69 W 3 6 30.50 1033 10 16 0.00 0.00
8:55 pm 20:55 Cloudy 44 6.6 35 1.8 71 71 W 3 6 30.52 1033 10 16 0.00 0.00
9:15 pm 21:15 Cloudy 44 6.5 35 1.8 72 72 Calm 30.52 1033 10 16 0.00 0.00
9:35 pm 21:35 Cloudy 44 6.5 35 1.6 71 71 WNW 3 6 30.53 1034 10 16 0.00 0.00
9:55 pm 21:55 Cloudy 43 6.1 35 1.7 73 73 W 3 6 30.53 1034 10 16 0.00 0.00
10:15 pm 22:15 Cloudy 43 6 36 2 75 75 W 3 6 30.53 1034 10 16 0.00 0.00
10:35 pm 22:35 Cloudy 44 6.4 36 2.1 74 74 Calm 30.53 1034 10 16 0.00 0.00
10:55 pm 22:55 Cloudy 44 6.6 36 2.1 73 73 Calm 30.52 1034 10 16 0.00 0.00
11:15 pm 23:15 Cloudy 44 6.7 35 1.8 71 71 W 3 6 30.53 1034 10 16 0.00 0.00
11:35 pm 23:35 Cloudy 44 6.8 36 2 71 71 W 3 6 30.52 1034 10 16 0.00 0.00
11:55 pm 23:55 Cloudy 44 6.8 37 2.5 74 74 W 5 7 30.52 1034 10 16 0.00 0.00

Powered by AerisWeather